Weather History for KELY - June, 2013

Change the Weather History Date:

Monday, June 17, 2013

  Actual Average Record
Temperature  
Mean Temperature 62 °F 60 °F  
Max Temperature 86 °F 80 °F 95 °F (1899)
Min Temperature 38 °F 41 °F 23 °F (2010)
Degree Days  
Heating Degree Days 3 5  
Month to date heating degree days 49 132  
Since 1 June heating degree days 49 132  
Since 1 July heating degree days 7122 7479  
Cooling Degree Days 0 1  
Month to date cooling degree days 14 5  
Year to date cooling degree days 14 6  
Since 1 June cooling degree days 14 5  
Growing Degree Days 10 (Base 50)    
Moisture  
Dew Point 10 °F    
Average Humidity 15    
Maximum Humidity 24    
Minimum Humidity 5    
Precipitation  
Precipitation 0.00 in 0.02 in 0.73 in (1964)
Month to date precipitation T 0.48  
Year to date precipitation 3.11 4.91  
Snow  
Snow 0.00 in 0.00 in 1.50 in (1979)
Month to date snowfall 0.0 0.1  
Since 1 June snowfall 0.0 0.1  
Since 1 July snowfall 65.0 50.8  
Snow Depth 0.00 in    
Sea Level Pressure  
Sea Level Pressure 29.86 in    
Wind  
Wind Speed 9 mph (South)    
Max Wind Speed 20 mph    
Max Gust Speed 30 mph    
Visibility 10 miles    
Events      
T = Trace of Precipitation, MM = Missing Value Source: NWS Daily Summary

Daily Weather History Graph

Daily Weather History Graph

Search for Another Location

Airport or City:

Trip Planner

Search our weather history database for the weather conditions in past years. The results will help you decide how hot, cold, wet, or windy it might be!

Date:

Astronomy

Jun. 17, 2013 Rise Set
Actual Time 5:12 AM PDT 8:08 PM PDT
Civil Twilight 4:40 AM PDT 8:40 PM PDT
Nautical Twilight 3:59 AM PDT 9:21 PM PDT
Astronomical Twilight 3:11 AM PDT 10:08 PM PDT
Moon 1:53 PM PDT (6/17) 12:48 AM PDT (6/17)
Length of Visible Light 16h 00m
Length of Day
14h 56m
First Quarter, 61% of the Moon is Illuminated
Jun 17
First Quarter
Jun 23
Full
Jun 29
Last Quarter
Jul 8
New
Jul 15
First Quarter

Hourly Weather History & Observations

Time (PDT) Temp. Windchill Dew Point Humidity Pressure Visibility Wind Dir Wind Speed Gust Speed Precip Events Conditions
12:53 AM 46.9 °F - 7.0 °F 20% 29.91 in 10.0 mi South 8.1 mph - N/A   Clear
1:53 AM 46.9 °F - 10.0 °F 22% 29.91 in 10.0 mi SSE 11.5 mph - N/A   Clear
2:53 AM 46.0 °F 40.2 °F 8.1 °F 21% 29.91 in 10.0 mi South 12.7 mph - N/A   Clear
3:53 AM 43.0 °F 37.2 °F 9.0 °F 25% 29.92 in 10.0 mi South 10.4 mph - N/A   Clear
4:53 AM 41.0 °F 34.3 °F 7.0 °F 25% 29.93 in 10.0 mi South 11.5 mph - N/A   Clear
5:53 AM 43.0 °F 36.0 °F 8.1 °F 24% 29.94 in 10.0 mi South 13.8 mph - N/A   Clear
6:53 AM 50.0 °F - 12.0 °F 22% 29.93 in 10.0 mi South 8.1 mph - N/A   Clear
7:53 AM 61.0 °F - 16.0 °F 17% 29.92 in 10.0 mi South 6.9 mph - N/A   Clear
8:53 AM 69.1 °F - 16.0 °F 13% 29.92 in 10.0 mi Calm Calm - N/A   Clear
9:53 AM 75.0 °F - 19.9 °F 13% 29.88 in 10.0 mi North 5.8 mph - N/A   Clear
10:53 AM 78.1 °F - 19.9 °F 11% 29.88 in 10.0 mi Variable 4.6 mph - N/A   Clear
11:53 AM 81.0 °F - 12.0 °F 7% 29.86 in 10.0 mi Variable 4.6 mph 19.6 mph N/A   Clear
12:53 PM - - - N/A% 30.12 in - North - - N/A   Clear
1:53 PM - - - N/A% 30.10 in 10.0 mi North - - N/A   Clear
2:53 PM 84.9 °F - 10.0 °F 6% 29.80 in 10.0 mi Variable 6.9 mph 18.4 mph N/A   Clear
3:53 PM 84.9 °F - 6.1 °F 5% 29.80 in 10.0 mi ESE 12.7 mph 20.7 mph N/A   Clear
4:53 PM 84.0 °F - 5.0 °F 5% 29.79 in 10.0 mi SE 6.9 mph - N/A   Clear
5:53 PM 82.9 °F - 3.9 °F 5% 29.78 in 10.0 mi SSW 6.9 mph - N/A   Clear
6:53 PM 81.0 °F - 6.1 °F 6% 29.76 in 10.0 mi South 9.2 mph 17.3 mph N/A   Clear
7:53 PM 71.1 °F - 7.0 °F 8% 29.76 in 10.0 mi SW 9.2 mph - N/A   Clear
8:53 PM 63.0 °F - 8.1 °F 11% 29.77 in 10.0 mi SSE 9.2 mph - N/A   Clear
9:53 PM 61.0 °F - 9.0 °F 13% 29.77 in 10.0 mi SSW 9.2 mph - N/A   Clear
10:53 PM 61.0 °F - 8.1 °F 12% 29.75 in 10.0 mi South 13.8 mph - N/A   Clear
11:53 PM 61.0 °F - 9.0 °F 13% 29.74 in 10.0 mi SSW 10.4 mph - N/A   Clear